Pocatello, ID

2:35 AM MST on February 22, 2017 (GMT -0700)
Pocatello Regional

Weather History for KPIH - March, 2014

Change the Weather History Date:

Monday, March 3, 2014

  Actual Average Record
Temperature  
Mean Temperature 47 °F 34 °F  
Max Temperature 54 °F 44 °F 65 °F (1994)
Min Temperature 40 °F 24 °F -2 °F (2002)
Degree Days  
Heating Degree Days 18 31  
Month to date heating degree days 75 95  
Since 1 July heating degree days 5055 5368  
Cooling Degree Days 0 0  
Month to date cooling degree days 0 0  
Year to date cooling degree days 0 0  
Moisture  
Dew Point 36 °F    
Average Humidity 65    
Maximum Humidity 85    
Minimum Humidity 45    
Precipitation  
Precipitation T in 0.04 in 0.50 in (1995)
Month to date precipitation 1.05 0.12  
Year to date precipitation 2.76 2.08  
Snow  
Snow 0.00 in - - ()
Month to date snowfall 1.9  
Since 1 July snowfall 20.8  
Snow Depth 0.00 in    
Sea Level Pressure  
Sea Level Pressure 29.98 in    
Wind  
Wind Speed 14 mph (SW)    
Max Wind Speed 22 mph    
Max Gust Speed 26 mph    
Visibility 10 miles    
Events Rain    
T = Trace of Precipitation, MM = Missing Value Source: NWS Daily Summary

Daily Weather History Graph

Daily Weather History Graph

Search for Another Location

Airport or City:

Trip Planner

Search our weather history database for the weather conditions in past years. The results will help you decide how hot, cold, wet, or windy it might be!

Date:

Astronomy

Mar. 03, 2014 Rise Set
Actual Time 7:02 AM MST 6:22 PM MST
Civil Twilight 6:34 AM MST 6:50 PM MST
Nautical Twilight 6:01 AM MST 7:23 PM MST
Astronomical Twilight 5:28 AM MST 7:56 PM MST
Moon 8:08 AM MST (3/3) 9:35 PM MST (3/3)
Length of Visible Light 12h 16m
Length of Day
11h 19m
Waxing Crescent, 8% of the Moon is Illuminated
Mar 3
Waxing Crescent
Mar 8
First Quarter
Mar 16
Full
Mar 23
Last Quarter
Mar 30
New

Hourly Weather History & Observations

Time (MST) Temp. Windchill Dew Point Humidity Pressure Visibility Wind Dir Wind Speed Gust Speed Precip Events Conditions
12:53 AM 43.0 °F 34.8 °F 36.0 °F 76% 29.99 in 10.0 mi SSW 18.4 mph - N/A   Overcast
1:53 AM 43.0 °F 36.0 °F 36.0 °F 76% 29.97 in 10.0 mi South 13.8 mph - N/A   Overcast
2:53 AM 44.1 °F 36.8 °F 36.0 °F 73% 29.95 in 10.0 mi SSW 16.1 mph - N/A   Overcast
3:53 AM 44.1 °F 37.4 °F 36.0 °F 73% 29.96 in 10.0 mi SSW 13.8 mph - N/A   Overcast
4:53 AM 43.0 °F 36.0 °F 36.0 °F 76% 30.00 in 10.0 mi SW 13.8 mph - N/A   Overcast
5:53 AM 42.1 °F 34.9 °F 35.1 °F 76% 30.02 in 10.0 mi SSW 13.8 mph - N/A   Mostly Cloudy
6:53 AM 41.0 °F 32.5 °F 34.0 °F 76% 30.04 in 10.0 mi SW 17.3 mph - N/A   Mostly Cloudy
7:53 AM 42.1 °F 34.5 °F 35.1 °F 76% 30.04 in 10.0 mi SW 15.0 mph - N/A   Mostly Cloudy
8:53 AM 46.0 °F 39.9 °F 36.0 °F 68% 30.04 in 10.0 mi SSW 13.8 mph - N/A   Mostly Cloudy
9:53 AM 46.0 °F 40.2 °F 37.0 °F 71% 30.04 in 10.0 mi SSW 12.7 mph - N/A   Mostly Cloudy
10:53 AM 48.0 °F - 37.0 °F 66% 30.03 in 10.0 mi SSW 11.5 mph - N/A   Overcast
11:53 AM 50.0 °F - 36.0 °F 59% 30.02 in 10.0 mi SW 15.0 mph - N/A   Overcast
12:53 PM 50.0 °F - 33.1 °F 52% 30.00 in 10.0 mi SW 13.8 mph - N/A   Overcast
1:53 PM 52.0 °F - 32.0 °F 47% 29.97 in 10.0 mi WSW 15.0 mph - N/A   Mostly Cloudy
2:53 PM 53.1 °F - 32.0 °F 45% 29.94 in 10.0 mi SW 15.0 mph - N/A   Mostly Cloudy
3:53 PM 46.9 °F - 39.0 °F 74% 29.96 in 10.0 mi West 16.1 mph - 0.00 in   Overcast
4:53 PM 46.0 °F 39.3 °F 37.9 °F 73% 29.98 in 10.0 mi WSW 16.1 mph - N/A   Overcast
5:53 PM 45.0 °F 38.9 °F 39.0 °F 80% 29.97 in 10.0 mi SSW 12.7 mph - N/A   Overcast
6:53 PM 43.0 °F 37.2 °F 39.9 °F 89% 29.98 in 10.0 mi SW 10.4 mph - 0.00 in Rain Light Rain
7:53 PM 43.0 °F 37.2 °F 39.0 °F 86% 29.96 in 10.0 mi SSW 10.4 mph - 0.00 in   Mostly Cloudy
8:53 PM 43.0 °F 36.8 °F 36.0 °F 76% 29.94 in 10.0 mi South 11.5 mph - N/A   Partly Cloudy
9:53 PM 46.0 °F 39.9 °F 35.1 °F 66% 29.93 in 10.0 mi South 13.8 mph - N/A   Mostly Cloudy
10:53 PM 46.9 °F - 35.1 °F 63% 29.91 in 10.0 mi South 16.1 mph - N/A   Overcast
11:53 PM 46.9 °F - 34.0 °F 61% 29.89 in 10.0 mi South 15.0 mph - N/A   Mostly Cloudy